EW9774 Weather Reports


Display with metric or nautical units.
time (UTC)temp
F
wind
direction
speed
MPH
gust
MPH
rain 1hr
in
rain 24hr
in
rain mn
in
humidity
%
barometer
mb
20260902203105 60 79 1.0 4.0 0.02 0.04 0.03 88 1009.4
20260902201530 61 44 1.0 4.0 0.03 0.03 0.02 87 1009.4
20260902200031 61 49 2.0 4.0 0.02 0.02 0.02 84 1009.3
20260902194530 61 180 0.0 1.0 0.02 0.02 0.02 83 1009.2
20260902193032 62 194 0.0 3.0 0.02 0.02 0.00 81 1009.3
20260902190029 63 180 1.0 3.0 0.00 0.00 0.00 79 1009.0
20260902184530 63 195 2.0 4.0 0.00 0.00 0.00 78 1009.1
20260902183107 64 337 0.0 2.0 0.00 0.00 0.00 76 1009.0
20260902181609 63 345 0.0 2.0 0.00 0.00 0.00 72 1009.0
20260902180148 63 7 2.0 5.0 0.00 0.00 0.00 70 1009.1
20260902174530 64 1 2.0 5.0 0.00 0.00 0.00 69 1009.1
20260902173031 64 258 1.0 3.0 0.00 0.00 0.00 72 1009.2
20260902171539 63 182 2.0 6.0 0.00 0.00 0.00 71 1009.4
20260902170031 63 305 0.0 3.0 0.00 0.00 0.00 71 1009.6
20260902164529 62 59 0.0 2.0 0.00 0.00 0.00 73 1009.8
20260902163042 62 153 0.0 3.0 0.00 0.00 0.00 74 1009.9
20260902161531 61 117 1.0 4.0 0.00 0.00 0.00 75 1010.0
20260902160030 60 146 1.0 4.0 0.00 0.00 0.00 76 1010.3
20260902143029 55 136 0.0 3.0 0.00 0.00 0.00 89 1011.0
20260902141606 53 180 1.0 4.0 0.00 0.00 0.00 91 1011.1
20260902140106 52 180 0.0 2.0 0.00 0.00 0.00 92 1011.0
20260902134531 52 185 1.0 4.0 0.00 0.00 0.00 92 1011.2
20260902133032 51 188 2.0 4.0 0.00 0.00 0.00 92 1011.3
20260902131609 50 189 3.0 6.0 0.00 0.00 0.00 93 1011.2
20260902130032 50 202 2.0 4.0 0.00 0.00 0.00 92 1011.3
20260902124532 50 165 2.0 5.0 0.00 0.00 0.00 92 1011.3
20260902121647 51 180 3.0 5.0 0.00 0.00 0.00 93 1011.3
20260902120145 50 183 2.0 5.0 0.00 0.00 0.00 92 1011.3
20260902114604 51 180 1.0 3.0 0.00 0.00 0.00 91 1011.4
20260902113030 51 175 0.0 3.0 0.00 0.00 0.00 91 1011.5
20260902111607 52 180 0.0 4.0 0.00 0.00 0.00 90 1011.4
20260902110030 52 202 1.0 4.0 0.00 0.00 0.00 89 1011.5
20260902104606 52 176 1.0 4.0 0.00 0.00 0.00 89 1011.6
20260902103032 53 156 3.0 5.0 0.00 0.00 0.00 88 1011.8
20260902101530 53 167 1.0 4.0 0.00 0.00 0.00 88 1011.7
20260902094530 53 185 1.0 7.0 0.00 0.00 0.00 89 1011.8
20260902093031 53 185 1.0 5.0 0.00 0.00 0.00 89 1012.1
20260902091531 53 179 2.0 4.0 0.00 0.00 0.00 87 1012.1
20260902090030 54 180 1.0 4.0 0.00 0.00 0.00 86 1012.0
20260902084530 54 319 0.0 3.0 0.00 0.00 0.00 85 1012.0
20260902083106 55 207 0.0 5.0 0.00 0.00 0.00 84 1012.0
20260902081530 56 198 0.0 2.0 0.00 0.00 0.00 82 1012.0
20260902080106 56 241 1.0 5.0 0.00 0.00 0.00 81 1012.2
20260902074529 57 241 0.0 4.0 0.00 0.00 0.00 79 1012.3
20260902071530 60 335 0.0 4.0 0.00 0.00 0.00 75 1012.4
20260902070107 60 182 2.0 7.0 0.00 0.00 0.00 75 1012.7
20260902064607 60 186 1.0 7.0 0.00 0.00 0.00 74 1012.7
20260902063030 61 183 1.0 6.0 0.00 0.00 0.00 73 1012.9
20260902061530 61 188 4.0 10.0 0.00 0.00 0.00 73 1012.9
20260902060145 61 187 2.0 8.0 0.00 0.00 0.00 73 1012.9
20260902054531 61 184 2.0 9.0 0.00 0.00 0.00 74 1012.9
20260902053030 60 59 0.0 4.0 0.00 0.00 0.00 74 1012.8
20260902051530 60 148 0.0 3.0 0.00 0.00 0.00 74 1012.7
20260902050106 61 180 2.0 6.0 0.00 0.00 0.00 71 1012.5
20260902044531 61 186 3.0 8.0 0.00 0.00 0.00 69 1012.3
20260902043030 62 180 5.0 10.0 0.00 0.00 0.00 69 1012.3
20260902041530 62 181 4.0 9.0 0.00 0.00 0.00 70 1012.1
20260902040033 62 181 4.0 10.0 0.00 0.00 0.00 69 1011.9
20260902033032 62 189 4.0 10.0 0.00 0.00 0.00 70 1011.7
20260902031532 61 182 5.0 12.0 0.00 0.00 0.00 70 1011.6
20260902024531 62 183 3.0 8.0 0.00 0.00 0.00 67 1011.7
20260902023030 63 181 4.0 12.0 0.00 0.00 0.00 67 1011.5
20260902021532 63 182 4.0 11.0 0.00 0.00 0.00 67 1011.5
20260902020030 64 302 2.0 11.0 0.00 0.00 0.00 65 1011.3
20260902010031 66 189 4.0 12.0 0.00 0.00 0.00 63 1011.0
20260902004532 67 198 3.0 17.0 0.00 0.00 0.00 62 1010.8
20260902003029 66 191 4.0 16.0 0.00 0.00 0.00 62 1010.6
20260902001648 67 191 6.0 18.0 0.00 0.00 0.00 62 1010.5
20260902000108 66 194 8.0 20.0 0.00 0.00 0.00 62 1010.6
20260901231531 68 190 5.0 18.0 0.00 0.00 0.00 60 1010.6
20260901230106 68 192 7.0 20.0 0.00 0.00 0.00 61 1010.6
20260901223107 67 197 6.0 19.0 0.00 0.00 0.00 62 1010.4
20260901221530 68 190 9.0 26.0 0.00 0.00 0.00 58 1010.0
20260901220030 70 189 7.0 21.0 0.00 0.00 0.00 56 1009.9
20260901214531 71 217 6.0 25.0 0.00 0.00 0.00 57 1009.8
20260901213108 71 329 5.0 15.0 0.00 0.00 0.00 58 1009.9
20260901210109 69 360 4.0 13.0 0.00 0.00 0.00 58 1010.2
20260901204533 70 225 6.0 21.0 0.00 0.00 0.00 56 1010.3